Flag Weather past 2 weeks in Lingen (Ems), Lower Saxony, Germany

Now
37 °F

Partly sunny.


Feels Like: 33 °F
Forecast: 31 / 38 °F
Wind: 5 mph from East

Location: Meppen

Current Time: Nov 28, 2014 at 9:34:07 AM

Latest Report: Nov 28, 2014 at 9:00 AM


Visibility: 6 mi

Pressure: 29.88 "Hg

Humidity: 82%

Dew point: 32 °F

Location of Lingen (Ems)Location

Historic Weather in Lingen (Ems) — Graph

°F

Lingen (Ems) temperature yesterday

Maximum temperature yesterday: 42 °F (at 3:00 PM)
Minimum temperature yesterday: 38 °F (at 9:00 AM)
Average temperature yesterday: 40 °F

Past Weeks' High & Low Weather Summary

 TemperatureHumidityPressure
High58 °F (Nov 23, 2:00 PM)96% (Nov 13, 8:00 AM)30.37 "Hg (Nov 13, 8:00 AM)
Low28 °F (Nov 21, 5:00 AM)65% (Nov 24, 2:00 PM)29.47 "Hg (Nov 16, 2:00 PM)
Average44 °F87%29.98 "Hg
* Reported Nov 13 8:00 AM — Nov 28 8:00 AM, Lingen (Ems), Weather by CustomWeather, © 2014

Note: Actual official high and low records may vary slightly from our data, if they occured in-between our weather recording intervals... More about our weather records

Advertising

Lingen (Ems) weather history for previous 24 hours

 ConditionsComfort  
Time TempWeatherWind HumidityBarometerVisibility
8:00 AM
Nov 28
36 °FPassing clouds.5 mph84%29.86 "Hg5 mi
6:00 AM36 °FChilly.5 mph83%29.84 "Hg5 mi
5:00 AM37 °FChilly.5 mph82%29.84 "Hg6 mi
4:00 AMN/APassing clouds.N/AN/AN/A3 mi
3:00 AM39 °FChilly.5 mph80%29.83 "Hg6 mi
2:00 AM38 °FChilly.5 mph82%29.83 "Hg6 mi
1:00 AM38 °FChilly.5 mph81%29.82 "Hg6 mi
12:00 AM39 °FChilly.5 mph80%29.82 "Hg6 mi
11:00 PM
Nov 27
39 °FChilly.5 mph83%29.81 "Hg5 mi
9:00 PM39 °FChilly.3 mph80%29.82 "Hg6 mi
8:00 PM39 °FChilly.3 mph79%29.82 "Hg6 mi
7:00 PM39 °FChilly.3 mph79%29.81 "Hg6 mi
6:00 PMN/APassing clouds.8 mphN/AN/A7 mi
5:00 PM41 °FQuite cool.3 mph79%29.81 "Hg6 mi
3:00 PM42 °FOvercast.3 mph79%29.80 "Hg6 mi
2:00 PM41 °FOvercast.3 mph78%29.81 "Hg6 mi
1:00 PM41 °FOvercast.3 mph78%29.83 "Hg6 mi
12:00 PM40 °FLow clouds.3 mph79%29.83 "Hg6 mi
11:00 AM39 °FOvercast.3 mph80%29.85 "Hg6 mi
9:00 AM38 °FOvercast.3 mph84%29.85 "Hg5 mi
Weather by CustomWeather, © 2014

See weather overviewHow to use our weather pages